Location: Kitchener
(43.4500°N, 80.5000°W)
Time: 16:16:05
(UTC-04:00)

Tiangong 2 - Visible Passes

Search period start: 18 July 2018 00:00
Search period end: 28 July 2018 00:00
Orbit: 386 x 394 km, 42.8° (Epoch: 18 July)

Date Brightness Start Highest point End Pass type
(mag) Time Alt. Az. Time Alt. Az. Time Alt. Az.
18 Jul 1.0 21:55:50 10° W 21:59:02 79° S 22:01:59 12° E visible
18 Jul 2.9 23:32:46 10° W 23:34:18 23° WSW 23:34:18 23° WSW visible
19 Jul 1.3 22:35:01 10° W 22:38:08 51° SSW 22:39:00 37° SE visible
20 Jul 1.1 21:37:18 10° W 21:40:29 67° S 21:43:39 10° ESE visible
20 Jul 3.1 23:14:27 10° W 23:16:01 19° SW 23:16:01 19° SW visible
21 Jul 2.0 22:16:33 10° W 22:19:29 34° SSW 22:20:44 24° SSE visible
22 Jul 3.5 22:56:34 10° WSW 22:57:47 13° SW 22:57:47 13° SW visible
23 Jul 2.8 21:58:14 10° W 22:00:44 21° SSW 22:02:33 14° SSE visible
25 Jul 3.6 21:40:26 10° WSW 21:41:54 13° SSW 21:43:21 10° S visible
